Location: Quaker Farms
(41.4276°N, 73.1557°W)
Time: 20:35:26
(UTC+00:00)

S-56A Canister/Altair - Pass Details

Date: 21 June 2021
Orbit: 631 x 2501 km, 38.9° (Epoch: 30 July)

Event Time Altitude Azimuth Distance (km) Brightness Sun altitude
Rises 13:55:57 0° 276° (W) 3,186 10.3 48.8°
Reaches altitude 10° 13:58:18 10° 265° (W) 2,407 9.8 49.3°
Maximum altitude 14:03:16 32° 203° (SSW) 1,641 9.5 50.2°
Drops below altitude 10° 14:10:09 10° 143° (SE) 3,363 11.4 51.4°
Sets 14:14:03 0° 135° (SE) 4,673 12.0 52.1°
